Location: Newark
(54.8056°N, 24.4389°E)
Time: 16:57:32
(UTC+00:00)

N. Korean satellite - Visible Passes

Search period start: 14 November 2019 00:00
Search period end: 24 November 2019 00:00
Orbit: 456 x 506 km, 97.2° (Epoch: 13 November)

Date Brightness Start Highest point End Pass type
(mag) Time Alt. Az. Time Alt. Az. Time Alt. Az.
14 Nov 9.3 03:33:04 10° NE 03:36:04 22° E 03:39:02 10° SE visible
14 Nov 7.0 05:06:05 10° N 05:09:39 43° WNW 05:13:11 10° SW visible
14 Nov 8.3 15:48:09 10° SSW 15:51:32 38° W 15:55:02 10° NNW visible
15 Nov 10.1 03:08:34 10° ENE 03:10:26 13° E 03:12:16 10° ESE visible
15 Nov 6.6 04:40:35 10° NNE 04:44:20 78° WNW 04:48:02 10° SSW visible
15 Nov 7.0 15:22:28 10° S 15:26:05 70° WSW 15:29:48 10° NNW visible
16 Nov 7.3 04:15:14 10° NNE 04:18:56 58° E 04:22:35 10° S visible
16 Nov 6.6 14:57:06 10° SSE 15:00:42 64° ENE 15:04:24 10° N visible
16 Nov 10.0 16:32:18 10° SW 16:34:31 15° W 16:36:46 10° NW visible
17 Nov 8.6 03:50:03 10° NNE 03:53:27 32° E 03:56:47 10° SSE visible
17 Nov 9.1 16:05:47 10° SSW 16:08:53 26° W 16:12:04 10° NW visible
18 Nov 9.6 03:25:09 10° NE 03:27:52 19° E 03:30:33 10° SE visible
18 Nov 6.8 04:57:54 10° N 05:01:32 51° WNW 05:05:08 10° SSW visible
18 Nov 7.9 15:39:50 10° S 15:43:22 46° W 15:46:58 10° NNW visible
19 Nov 10.3 03:01:05 10° ENE 03:02:11 11° E 03:03:16 10° ESE visible
19 Nov 6.6 04:32:26 10° NNE 04:36:11 88° ESE 04:39:53 10° SSW visible
19 Nov 6.7 15:14:15 10° SSE 15:17:55 85° WSW 15:21:40 10° NNW visible
19 Nov 10.3 16:51:10 10° W 16:51:58 11° W 16:52:45 10° WNW visible
20 Nov 7.7 04:07:07 10° NNE 04:10:45 47° E 04:14:20 10° S visible
20 Nov 6.8 14:48:58 10° SSE 14:52:34 53° ENE 14:56:12 10° N visible
20 Nov 9.7 16:23:40 10° SW 16:26:16 18° W 16:28:54 10° NW visible
21 Nov 8.9 03:42:00 10° NE 03:45:13 27° E 03:48:23 10° SSE visible
21 Nov 7.2 05:15:16 10° N 05:18:41 35° WNW 05:22:03 10° SW visible
21 Nov 8.7 15:57:21 10° SSW 16:00:40 31° W 16:04:01 10° NNW visible
22 Nov 9.8 03:17:14 10° NE 03:19:35 16° E 03:21:55 10° SE visible
22 Nov 6.6 04:49:41 10° N 04:53:23 62° WNW 04:57:00 10° SSW visible
22 Nov 7.4 15:31:31 10° S 15:35:09 56° W 15:38:50 10° NNW visible
23 Nov 6.9 04:24:16 10° NNE 04:28:00 73° ESE 04:31:39 10° S visible
23 Nov 6.6 15:06:02 10° SSE 15:09:43 80° ENE 15:13:28 10° NNW visible
23 Nov 10.1 16:41:57 10° WSW 16:43:39 13° W 16:45:22 10° WNW visible
